KAKE SEAPLANE BASE, AK current weather conditions

sailwx.info

Wind from 090 at 5 knots

Air temperature 6.0° C
Visibility: greater than 8.7 NM
Dewpoint 4.0° C
Present weather: Light rain.

Last reported at 2019-Oct-15 06:05 UTC.
Time now 2019-Oct-15 07:29 UTC

Location: N 56°58' W 133°55'.
View on Google Maps.

See reports from other nearby stations

  
Tides and Currents Weather Stations Pressure Air Temp Water Temp Dewpoint Dewpoint Depression Visibility Wind Speed Wind Dir Waves Ship Positions
date/time (UTC)wind fromknots sea level pressurealtimeterstation pressurevisibilityair tempwater tempwave heightnotes
2019-Oct-15 07:10 080 7 4.3 6.0 Light rain. Mist.
2019-Oct-15 06:55 080 7 4.3 6.0 Rain. Mist.
2019-Oct-15 06:45 080 6 3.5 6.0 Light rain. Mist.
2019-Oct-15 06:25 080 6 3.5 6.0 Light rain. Mist.
2019-Oct-15 06:20 080 5 4.3 6.0 Light rain. Mist.
2019-Oct-15 06:15 090 5 6.1 6.0 Light rain.
2019-Oct-15 06:10 080 7 7.0 6.0 Rain.
2019-Oct-15 06:05 090 5 8.7 6.0 Light rain.
2019-Oct-15 05:56 090 4 8.7 6.1 Light rain.
2019-Oct-15 05:50 070 4 7.8 6.0 Rain.
2019-Oct-15 05:30 090 4 6.1 6.0 Rain.
2019-Oct-15 05:15 5.2 6.0 Rain. Mist.
2019-Oct-15 05:00 100 4 8.7 6.0 Light rain.
2019-Oct-15 04:35 070 3 8.7 6.0 Light rain.
2019-Oct-15 04:25 060 3 8.7 5.0 Light rain.
2019-Oct-15 03:50 040 4 8.7 5.0 Rain.
2019-Oct-15 03:45 050 5 8.7 5.0 Rain.
2019-Oct-15 03:30 030 4 8.7 6.0 Light rain.
2019-Oct-15 03:20 8.7 6.0 Light rain.
2019-Oct-15 03:05 090 3 7.0 5.0 Rain.
2019-Oct-15 03:00 080 4 7.0 5.0 Rain.
2019-Oct-15 02:50 060 3 6.1 5.0 Light rain.
2019-Oct-15 02:30 070 4 5.2 5.0 Light rain. Mist.
2019-Oct-15 02:20 060 3 7.0 5.0 Light rain.
2019-Oct-15 02:15 070 4 6.1 5.0 Light rain.
2019-Oct-15 01:50 060 3 8.7 5.0 Light rain.
2019-Oct-15 01:45 060 3 8.7 5.0 Light rain.
2019-Oct-15 01:30 050 4 7.0 4.0 Light rain.
2019-Oct-15 01:25 050 3 7.8 4.0 Light rain.
2019-Oct-15 00:56 090 2 5.2 4.4 Rain. Mist.
2019-Oct-15 00:50 080 5 7.8 4.0 Rain.
2019-Oct-15 00:35 070 5 6.1 4.0 Rain.
2019-Oct-15 00:30 080 4 5.2 4.0 Rain. Mist.
2019-Oct-15 00:25 070 5 5.2 4.0 Rain. Mist.
2019-Oct-15 00:08 6.1 4.0 Light rain.
2019-Oct-15 00:00 080 3 6.1 4.0 Light rain.
2019-Oct-14 23:56 080 5 5.2 4.4 Rain. Mist.
2019-Oct-14 23:55 080 6 5.2 4.0 Rain. Mist.
2019-Oct-14 23:40 070 4 6.1 4.0 Rain.
2019-Oct-14 23:29 080 4 4.3 4.0 Rain. Mist.
2019-Oct-14 23:20 090 3 7.0 4.0 Rain.
2019-Oct-14 23:15 060 4 7.8 4.0 Rain.
2019-Oct-14 23:00 050 5 7.0 4.0 Light rain.
2019-Oct-14 22:50 7.8 4.0 Light rain.
2019-Oct-14 22:30 060 7 7.0 5.0 Light rain.
2019-Oct-14 22:25 070 4 7.8 5.0 Light rain.
2019-Oct-14 22:15 070 4 8.7 6.0 Light rain.
2019-Oct-14 22:10 080 5 8.7 6.0 Light rain.
2019-Oct-14 21:40 060 4 8.7 6.0 Light rain.
2019-Oct-14 21:30 070 3 8.7 6.0 Light rain.
2019-Oct-14 21:25 050 6 8.7 6.0 Light rain.
2019-Oct-14 21:10 060 8 8.7 5.0 Light rain.
2019-Oct-14 21:05 050 6 8.7 6.0 Light rain.
2019-Oct-14 20:56 070 6 8.7 5.6 Light rain.
2019-Oct-14 20:55 080 7 8.7 6.0 Light rain.
2019-Oct-14 20:45 090 6 8.7 6.0 Light rain.
2019-Oct-14 20:15 080 8 8.7 7.0 Light rain.
2019-Oct-14 20:10 080 8 8.7 7.0 Light rain.
2019-Oct-14 20:00 100 7 8.7 7.0 Light rain.
2019-Oct-14 19:55 090 8 8.7 7.0 Light rain.
2019-Oct-14 19:50 070 5 8.7 6.0 Light rain.
2019-Oct-14 19:35 050 4 8.7 6.0
2019-Oct-14 19:20 050 4 8.7 6.0
2019-Oct-14 19:05 060 4 8.7 6.0
2019-Oct-14 19:00 060 5 8.7 6.0
2019-Oct-14 18:56 050 4 8.7 5.6
2019-Oct-14 18:45 070 4 8.7 6.0
2019-Oct-14 18:40 060 4 8.7 5.0
2019-Oct-14 18:35 060 4 8.7 5.0
2019-Oct-14 18:30 050 4 8.7 5.0
2019-Oct-14 18:15 050 5 8.7 5.0
2019-Oct-14 18:05 040 5 8.7 4.0
2019-Oct-14 17:55 040 5 8.7 4.0
2019-Oct-14 17:50 040 4 8.7 4.0
2019-Oct-14 17:45 050 4 8.7 4.0
2019-Oct-14 17:30 050 4 8.7 4.0
2019-Oct-14 17:25 040 5 8.7 4.0
2019-Oct-14 17:20 070 3 8.7 4.0
2019-Oct-14 17:15 060 3 8.7 4.0
2019-Oct-14 17:10 080 3 8.7 4.0
2019-Oct-14 17:05 070 4 8.7 4.0
2019-Oct-14 17:00 060 4 8.7 4.0
2019-Oct-14 16:55 060 3 8.7 4.0
2019-Oct-14 16:45 070 3 8.7 4.0
2019-Oct-14 16:20 050 6 8.7 4.0
2019-Oct-14 16:10 050 5 8.7 4.0
2019-Oct-14 16:00 060 7 8.7 3.0
2019-Oct-14 15:55 070 5 8.7 3.0
2019-Oct-14 15:50 070 5 8.7 3.0
2019-Oct-14 15:30 070 5 8.7 3.0
2019-Oct-14 14:56 060 6 8.7 3.3
2019-Oct-14 14:50 080 5 8.7 3.0
2019-Oct-14 14:25 070 4 8.7 3.0
2019-Oct-14 14:20 070 4 8.7 3.0
2019-Oct-14 14:00 050 5 8.7 3.0
2019-Oct-14 13:45 070 3 8.7 2.0
2019-Oct-14 13:40 8.7 3.0
2019-Oct-14 13:20 080 4 8.7 3.0
2019-Oct-14 13:10 080 5 8.7 3.0
2019-Oct-14 12:50 070 4 8.7 3.0
2019-Oct-14 12:40 040 6 8.7 3.0
2019-Oct-14 12:25 040 7 8.7 3.0
2019-Oct-14 12:20 050 5 8.7 3.0
2019-Oct-14 12:10 070 3 8.7 2.0
2019-Oct-14 11:56 080 4 8.7 2.2
2019-Oct-14 11:55 080 4 8.7 2.0
2019-Oct-14 11:45 080 3 8.7 2.0
2019-Oct-14 11:40 8.7 2.0
2019-Oct-14 11:30 110 4 8.7 2.0
2019-Oct-14 11:20 080 4 8.7 2.0
2019-Oct-14 11:10 070 5 8.7 2.0
2019-Oct-14 11:05 060 6 8.7 1.0
2019-Oct-14 10:56 070 6 8.7 1.1
2019-Oct-14 10:50 060 5 8.7 1.0
2019-Oct-14 10:30 060 4 8.7 1.0
2019-Oct-14 10:15 070 3 8.7 1.0
2019-Oct-14 09:56 8.7 0.6
2019-Oct-14 09:50 8.7 1.0
2019-Oct-14 09:40 8.7-0.0
2019-Oct-14 09:35 8.7 1.0
2019-Oct-14 09:30 8.7 1.0
2019-Oct-14 09:15 110 3 8.7-0.0
2019-Oct-14 09:10 8.7-0.0
2019-Oct-14 08:30 070 4 8.7 1.0
2019-Oct-14 08:25 070 6 8.7 1.0
2019-Oct-14 08:15 070 5 8.7 1.0
2019-Oct-14 08:00 060 6 8.7-0.0
2019-Oct-14 07:45 060 6 8.7 1.0
2019-Oct-14 07:40 070 6 8.7 1.0
2019-Oct-14 07:25 060 7 8.7-0.0
2019-Oct-14 07:10 070 6 8.7-0.0
2019-Oct-14 07:05 060 5 8.7-0.0
2019-Oct-14 06:56 060 6 8.7-0.0
2019-Oct-14 06:30 060 7 8.7 1.0
2019-Oct-14 06:25 060 6 8.7 1.0
2019-Oct-14 06:20 060 6 8.7 1.0
2019-Oct-14 06:05 060 6 8.7 1.0
2019-Oct-14 05:53 060 6 8.7 1.0
2019-Oct-14 05:30 060 6 8.7 1.0
2019-Oct-14 05:20 060 6 8.7 1.0
2019-Oct-14 05:10 060 6 8.7 1.0
2019-Oct-14 05:05 060 6 8.7 1.0
2019-Oct-14 04:55 060 6 8.7 1.0
2019-Oct-14 04:50 060 6 8.7 1.0
2019-Oct-14 04:45 060 6 8.7 1.0
2019-Oct-14 04:35 060 6 8.7 1.0
2019-Oct-14 04:25 060 6 8.7 1.0
2019-Oct-14 04:15 060 6 8.7 1.0
2019-Oct-14 04:00 060 6 8.7 1.0
2019-Oct-14 03:50 060 5 8.7 1.0
2019-Oct-14 03:45 060 5 8.7 1.0
2019-Oct-14 03:40 060 6 8.7 1.0
2019-Oct-14 03:20 060 6 8.7 1.0
2019-Oct-14 03:15 060 5 8.7 2.0
2019-Oct-14 03:10 060 6 8.7 2.0
2019-Oct-14 02:20 060 4 8.7 3.0
2019-Oct-14 02:15 060 4 8.7 4.0
2019-Oct-14 02:05 8.7 4.0
2019-Oct-14 01:55 8.7 6.0
2019-Oct-14 01:40 8.7 6.0
2019-Oct-14 01:30 8.7 6.0
2019-Oct-14 01:25 8.7 6.0
2019-Oct-14 01:05 8.7 6.0
2019-Oct-14 01:00 8.7 6.0
2019-Oct-14 00:56 8.7 6.1
2019-Oct-14 00:55 8.7 6.0
2019-Oct-14 00:45 190 3 8.7 6.0
2019-Oct-14 00:40 8.7 6.0
2019-Oct-14 00:35 8.7 6.0
2019-Oct-14 00:10 220 3 8.7 6.0
2019-Oct-14 00:05 210 3 8.7 6.0
2019-Oct-13 23:45 8.7 6.0
2019-Oct-13 23:40 8.7 6.0
2019-Oct-13 23:30 8.7 6.0
2019-Oct-13 23:15 8.7 6.0
2019-Oct-13 23:10 160 3 8.7 6.0
2019-Oct-13 23:00 190 3 8.7 6.0
2019-Oct-13 22:45 8.7 6.0
2019-Oct-13 22:35 230 3 8.7 6.0
2019-Oct-13 22:30 190 3 8.7 6.0
2019-Oct-13 22:25 170 3 8.7 6.0
2019-Oct-13 22:15 200 6 8.7 6.0
2019-Oct-13 22:10 180 4 8.7 6.0
2019-Oct-13 22:05 200 5 8.7 6.0
2019-Oct-13 21:35 160 4 8.7 7.0
2019-Oct-13 21:30 150 4 8.7 7.0
2019-Oct-13 21:25 180 4 8.7 6.0
2019-Oct-13 21:20 180 5 8.7 7.0
2019-Oct-13 21:15 160 5 8.7 7.0
2019-Oct-13 20:56 8.7 6.1
2019-Oct-13 20:55 8.7 6.0
2019-Oct-13 20:50 070 3 8.7 6.0
2019-Oct-13 20:40 130 3 8.7 6.0
2019-Oct-13 20:25 070 4 8.7 6.0
2019-Oct-13 20:20 090 3 8.7 6.0
2019-Oct-13 20:15 100 3 8.7 6.0
2019-Oct-13 20:10 130 4 8.7 6.0
2019-Oct-13 20:05 140 3 8.7 6.0
2019-Oct-13 19:56 8.7 5.6
2019-Oct-13 19:50 120 3 8.7 6.0
2019-Oct-13 19:40 040 4 8.7 6.0
2019-Oct-13 19:35 110 3 8.7 6.0
2019-Oct-13 19:05 050 3 8.7 6.0
2019-Oct-13 19:00 8.7 6.0
2019-Oct-13 18:56 8.7 5.6
2019-Oct-13 18:35 310 3 8.7 6.0
2019-Oct-13 18:30 8.7 6.0
2019-Oct-13 18:25 8.7 6.0
2019-Oct-13 18:20 8.7 6.0
2019-Oct-13 17:56 310 4 8.7 5.0
2019-Oct-13 17:40 310 3 8.7 4.0
2019-Oct-13 17:30 320 3 8.7 4.0
2019-Oct-13 17:20 8.7 4.0
2019-Oct-13 17:05 040 3 8.7 3.0
2019-Oct-13 17:00 8.7 3.0
2019-Oct-13 16:56 8.7 3.3
2019-Oct-13 16:45 040 3 8.7 3.0
2019-Oct-13 16:30 8.7 3.0
2019-Oct-13 16:20 8.7 3.0
2019-Oct-13 16:05 8.7 2.0
2019-Oct-13 16:00 8.7 2.0
2019-Oct-13 15:56 020 2 8.7 2.2
2019-Oct-13 15:55 020 3 8.7 2.0
2019-Oct-13 15:45 060 3 8.7 2.0
2019-Oct-13 15:35 050 4 8.7 2.0
2019-Oct-13 15:30 040 3 8.7 2.0
2019-Oct-13 15:25 8.7 2.0
2019-Oct-13 15:20 060 4 8.7 2.0
2019-Oct-13 15:15 070 5 8.7 2.0
2019-Oct-13 15:00 8.7 1.0
2019-Oct-13 14:56 8.7 1.1
2019-Oct-13 14:50 060 4 8.7 1.0
2019-Oct-13 14:40 060 4 8.7 1.0
2019-Oct-13 14:30 060 3 8.7 1.0
2019-Oct-13 14:25 8.7 1.0
2019-Oct-13 14:00 040 3 8.7 1.0
2019-Oct-13 13:56 060 5 8.7 1.1
2019-Oct-13 13:55 060 4 8.7 2.0
2019-Oct-13 13:45 060 5 8.7 2.0
2019-Oct-13 13:35 060 3 8.7 2.0
2019-Oct-13 13:30 070 4 8.7 2.0
2019-Oct-13 13:00 8.7 2.0
2019-Oct-13 12:56 8.7 1.7
2019-Oct-13 12:50 070 3 8.7 2.0
2019-Oct-13 12:40 040 3 8.7 1.0
2019-Oct-13 12:35 060 4 8.7 1.0
2019-Oct-13 12:30 050 5 8.7 1.0
2019-Oct-13 12:00 060 6 8.7 1.0
2019-Oct-13 11:56 060 5 8.7 0.6
2019-Oct-13 11:50 050 6 8.7-0.0
2019-Oct-13 11:40 060 6 8.7-0.0
2019-Oct-13 11:30 050 5 8.7-0.0
2019-Oct-13 11:15 060 6 8.7-0.0
2019-Oct-13 11:05 060 6 8.7-0.0
2019-Oct-13 10:56 060 6 8.7-0.0
2019-Oct-13 10:55 060 7 8.7-0.0
2019-Oct-13 10:50 060 6 8.7-0.0
2019-Oct-13 10:35 060 5 8.7-0.0
2019-Oct-13 10:25 060 6 8.7 1.0
2019-Oct-13 10:15 050 6 8.7-0.0
2019-Oct-13 10:00 060 5 8.7 1.0
2019-Oct-13 09:56 060 6 8.7 0.6
2019-Oct-13 09:52 060 6 8.7 1.0
2019-Oct-13 09:50 060 6 8.7 1.0
2019-Oct-13 09:25 060 5 8.7 1.0
2019-Oct-13 09:20 060 5 8.7 1.0
2019-Oct-13 09:15 060 6 8.7 1.0
2019-Oct-13 09:10 060 7 8.7 1.0
2019-Oct-13 09:00 060 5 8.7 1.0
2019-Oct-13 08:35 060 5 8.7 1.0
2019-Oct-13 08:25 060 5 8.7 1.0
2019-Oct-13 08:20 060 6 8.7 1.0
2019-Oct-13 08:10 060 6 8.7 1.0
2019-Oct-13 08:05 050 6 8.7 1.0
2019-Oct-13 07:56 060 5 8.7 0.6
2019-Oct-13 07:55 060 5 8.7 1.0
2019-Oct-13 07:50 070 6 8.7 1.0
2019-Oct-13 07:45 050 6 8.7 1.0
2019-Oct-13 07:35 070 6 8.7 1.0
2019-Oct-13 07:30 070 5 8.7 1.0
2019-Oct-13 07:25 060 5 8.7 1.0
2019-Oct-13 07:21 060 5 8.7 1.0
2019-Oct-13 07:20 060 5 8.7 1.0
2019-Oct-13 07:15 060 6 8.7 1.0
2019-Oct-13 07:10 050 5 8.7 1.0
2019-Oct-13 07:00 070 5 8.7 1.0